Weather History for Houghton, MI

Change the Weather History Date:

Monday, April 8, 2013

  Actual Average Record
Temperature  
Mean Temperature 32 °F -  
Max Temperature 33 °F 40 °F 62 °F (1955)
Min Temperature 30 °F 25 °F 7 °F (2003)
Degree Days  
Heating Degree Days 34    
Moisture  
Dew Point 31 °F    
Average Humidity 97    
Maximum Humidity 100    
Minimum Humidity 85    
Precipitation  
Precipitation 0.40 in - - ()
Sea Level Pressure  
Sea Level Pressure 29.90 in    
Wind  
Wind Speed 7 mph (East)    
Max Wind Speed 9 mph    
Max Gust Speed -    
Visibility 2 miles    
Events Fog , Snow    
Averages and records for this station are not official NWS values.
T = Trace of Precipitation, MM = Missing Value Source: NWS Daily Summary

Daily Weather History Graph

Daily Weather History Graph

Search for Another Location

Airport:

Trip Planner

Search our weather history database for the weather conditions in past years. The results will help you decide how hot, cold, wet, or windy it might be!

Date:

Astronomy

Apr. 08, 2013 Rise Set
Actual Time 7:18 AM EDT 8:33 PM EDT
Civil Twilight 6:47 AM EDT 9:05 PM EDT
Nautical Twilight 6:09 AM EDT 9:43 PM EDT
Astronomical Twilight 5:29 AM EDT 10:23 PM EDT
Moon 6:14 AM EDT (4/8) 7:04 PM EDT (4/8)
Length of Visible Light 14h 17m
Length of Day
13h 14m
Waning Crescent, 3% of the Moon is Illuminated
Apr 8
Waning Crescent
Apr 10
New
Apr 18
First Quarter
Apr 25
Full
May 2
Last Quarter

Hourly Weather History & Observations

Time (EDT) Temp. Windchill Dew Point Humidity Pressure Visibility Wind Dir Wind Speed Gust Speed Precip Events Conditions
12:53 AM 30.0 °F 23.2 °F 26.1 °F 85% 29.95 in 10.0 mi ESE 6.9 mph - N/A   Clear
1:53 AM 30.9 °F 22.8 °F 28.0 °F 89% 29.95 in 10.0 mi East 9.2 mph - N/A   Clear
2:53 AM 30.0 °F 22.4 °F 28.0 °F 92% 29.94 in 10.0 mi East 8.1 mph - N/A   Scattered Clouds
3:53 AM 30.9 °F 23.5 °F 28.9 °F 92% 29.93 in 10.0 mi East 8.1 mph - N/A   Overcast
4:53 AM 30.9 °F 24.3 °F 28.9 °F 92% 29.91 in 10.0 mi East 6.9 mph - N/A   Overcast
5:33 AM 30.2 °F 22.6 °F 30.2 °F 100% 29.86 in 1.8 mi East 8.1 mph - 0.00 in Snow Light Snow
5:41 AM 30.2 °F 23.4 °F 30.2 °F 100% 29.86 in 1.2 mi East 6.9 mph - 0.00 in Snow Light Snow
5:53 AM 30.9 °F 24.3 °F 30.0 °F 96% 29.90 in 1.0 mi East 6.9 mph - 0.02 in Snow Light Snow
6:06 AM 30.2 °F 24.3 °F 30.2 °F 100% 29.86 in 1.2 mi East 5.8 mph - 0.02 in Snow Light Snow
6:18 AM 30.2 °F 24.3 °F 30.2 °F 100% 29.87 in 0.8 mi ESE 5.8 mph - 0.05 in Snow Light Snow
6:27 AM 30.2 °F 23.4 °F 30.2 °F 100% 29.87 in 0.5 mi SE 6.9 mph - 0.07 in Fog , Snow Snow
6:53 AM 30.9 °F 25.2 °F 30.0 °F 96% 29.90 in 0.8 mi ESE 5.8 mph - 0.14 in Snow Light Snow
7:33 AM 30.2 °F 25.4 °F 30.2 °F 100% 29.85 in 1.0 mi East 4.6 mph - 0.08 in Snow Light Snow
7:42 AM 30.2 °F 25.4 °F 30.2 °F 100% 29.85 in 0.8 mi East 4.6 mph - 0.08 in Snow Light Snow
7:53 AM 30.9 °F 26.2 °F 30.9 °F 100% 29.89 in 0.5 mi East 4.6 mph - 0.09 in Fog , Snow Snow
8:41 AM 32.0 °F 26.4 °F 30.2 °F 93% 29.86 in 0.5 mi East 5.8 mph - 0.05 in Fog , Snow Snow
8:53 AM 32.0 °F 26.4 °F 30.9 °F 96% 29.91 in 0.8 mi East 5.8 mph - 0.06 in Snow Light Snow
9:01 AM 32.0 °F 26.4 °F 30.2 °F 93% 29.86 in 1.0 mi East 5.8 mph - 0.01 in Snow Light Snow
9:11 AM 32.0 °F 25.6 °F 30.2 °F 93% 29.87 in 0.5 mi East 6.9 mph - 0.02 in Fog , Snow Snow
9:53 AM 32.0 °F 25.6 °F 30.9 °F 96% 29.90 in 0.5 mi East 6.9 mph - 0.06 in Fog , Snow Snow
10:15 AM 32.0 °F 24.8 °F 30.2 °F 93% 29.85 in 0.2 mi East 8.1 mph - 0.01 in Fog , Snow Light Snow
10:53 AM 32.0 °F 24.8 °F 32.0 °F 100% 29.88 in 0.2 mi ENE 8.1 mph - 0.02 in Fog , Snow Light Snow
11:53 AM 33.1 °F 26.9 °F 32.0 °F 96% 29.87 in 0.2 mi East 6.9 mph - 0.00 in Fog , Snow Light Snow
12:41 PM 33.8 °F 26.4 °F 32.0 °F 93% 29.83 in 0.2 mi East 9.2 mph - 0.00 in Fog Fog
12:53 PM 33.1 °F 26.1 °F 32.0 °F 96% 29.87 in 0.2 mi East 8.1 mph - 0.00 in Fog Fog
1:53 PM 33.1 °F 25.5 °F 32.0 °F 96% 29.88 in 0.2 mi East 9.2 mph - 0.01 in Fog Fog
2:40 PM 33.8 °F 27.0 °F 32.0 °F 93% 29.85 in 0.2 mi East 8.1 mph - 0.00 in Fog Fog
2:53 PM 33.1 °F 26.1 °F 32.0 °F 96% 29.88 in 0.2 mi East 8.1 mph - 0.00 in Fog Fog
3:21 PM 32.0 °F 24.2 °F 32.0 °F 100% 29.84 in 0.2 mi East 9.2 mph - N/A Fog Fog
3:39 PM 32.0 °F 24.2 °F 32.0 °F 100% 29.84 in 0.2 mi East 9.2 mph - N/A Fog Fog
3:53 PM 32.0 °F 24.8 °F 32.0 °F 100% 29.88 in 0.2 mi East 8.1 mph - N/A Fog Fog
4:03 PM 32.0 °F 24.2 °F 32.0 °F 100% 29.85 in 0.2 mi East 9.2 mph - N/A Fog Fog
4:10 PM 32.0 °F 24.8 °F 32.0 °F 100% 29.85 in 0.8 mi East 8.1 mph - N/A   Mist
4:17 PM 32.0 °F 24.8 °F 32.0 °F 100% 29.85 in 1.5 mi East 8.1 mph - N/A   Overcast
4:53 PM 32.0 °F 24.8 °F 32.0 °F 100% 29.90 in 0.8 mi East 8.1 mph - N/A   Mist
5:07 PM 32.0 °F 25.6 °F 32.0 °F 100% 29.87 in 2.0 mi East 6.9 mph - N/A   Overcast
5:16 PM 32.0 °F 26.4 °F 32.0 °F 100% 29.87 in 1.2 mi East 5.8 mph - N/A   Overcast
5:33 PM 32.0 °F 26.4 °F 32.0 °F 100% 29.87 in 0.5 mi ESE 5.8 mph - N/A Fog Fog
5:51 PM 32.0 °F 26.4 °F 32.0 °F 100% 29.87 in 0.2 mi East 5.8 mph - N/A Fog Fog
5:53 PM 32.0 °F 25.6 °F 32.0 °F 100% 29.91 in 0.2 mi East 6.9 mph - N/A Fog Fog
6:53 PM 32.0 °F 27.5 °F 32.0 °F 100% 29.94 in 1.0 mi East 4.6 mph - N/A   Mist
7:51 PM 32.0 °F 27.5 °F 32.0 °F 100% 29.91 in 2.5 mi East 4.6 mph - N/A   Overcast
7:53 PM 32.0 °F 28.7 °F 32.0 °F 100% 29.95 in 2.5 mi East 3.5 mph - N/A   Overcast
8:01 PM 32.0 °F 27.5 °F 32.0 °F 100% 29.91 in 3.0 mi East 4.6 mph - N/A   Overcast
8:07 PM 32.0 °F 28.7 °F 32.0 °F 100% 29.91 in 1.8 mi East 3.5 mph - N/A   Overcast
8:17 PM 32.0 °F 28.7 °F 32.0 °F 100% 29.92 in 3.0 mi East 3.5 mph - N/A   Overcast
8:53 PM 32.0 °F 28.7 °F 30.9 °F 96% 29.98 in 5.0 mi ENE 3.5 mph - N/A   Overcast
9:38 PM 33.8 °F - 32.0 °F 93% 29.97 in 1.8 mi Calm Calm - N/A   Overcast
9:53 PM 33.1 °F 30.0 °F 32.0 °F 96% 30.02 in 1.2 mi North 3.5 mph - N/A   Overcast
10:18 PM 33.8 °F - 32.0 °F 93% 29.99 in 0.5 mi Calm Calm - N/A Fog Fog
10:53 PM 33.1 °F - 32.0 °F 96% 30.04 in 0.5 mi Calm Calm - N/A Fog Fog
11:32 PM 33.8 °F - 32.0 °F 93% 30.01 in 0.2 mi Calm Calm - N/A Fog Fog
11:35 PM 33.8 °F - 32.0 °F 93% 30.01 in 0.5 mi Calm Calm - N/A Fog Fog
11:53 PM 33.1 °F - 32.0 °F 96% 30.05 in 0.5 mi Calm Calm - N/A Fog Fog